Location: ????????
(54.6123°N, 39.2099°E)
Time: 16:53:00
(UTC+00:00)

Cosmos 1992 Rocket - Pass Details

Date: 19 May 2025
Orbit: 755 x 761 km, 74.0° (Epoch: 20 June)

Event Time Altitude Azimuth Distance (km) Brightness Sun altitude
Rises 23:32:25 0° 332° (NNW) 3,233 7.7 -10.2°
Reaches altitude 10° 23:34:48 10° 331° (NNW) 2,302 6.9 -10.0°
Maximum altitude 23:40:01 80° 246° (WSW) 778 4.0 -9.6°
Drops below altitude 10° 23:45:12 10° 160° (SSE) 2,283 6.1 -9.2°
Sets 23:47:33 0° 159° (SSE) 3,203 6.9 -9.0°
